Location: Newark
(36.0797°N, 3.9744°E)
Time: 19:45:15
(UTC+00:00)

Tiros 1 - Pass Details

Date: 12 December 2019
Orbit: 630 x 664 km, 48.4° (Epoch: 28 January)

Event Time Altitude Azimuth Distance (km) Brightness Sun altitude
Exits shadow 04:54:39 51° 242° (WSW) 814 7.3 -21.7°
Maximum altitude 04:55:49 83° 324° (NW) 655 7.0 -21.4°
Drops below altitude 10° 05:00:31 10° 53° (NE) 2,036 10.2 -20.5°
Sets 05:02:51 0° 54° (NE) 2,942 11.1 -20.0°
